EW7285 Weather Reports


Display with metric or nautical units.
time (UTC)temp
F
wind
direction
speed
MPH
gust
MPH
rain 1hr
in
rain 24hr
in
rain mn
in
humidity
%
barometer
mb
20260508033042 28 170 0.0 0.0 0.00 0.00 0.00 89 1023.2
20260508031539 28 170 0.0 0.0 0.00 0.00 0.00 89 1023.0
20260508030044 27 170 0.0 0.0 0.00 0.00 0.00 90 1022.8
20260508024539 27 170 0.0 0.0 0.00 0.00 0.00 89 1022.8
20260508023034 27 170 0.0 0.0 0.00 0.00 0.00 89 1022.7
20260508021536 27 170 0.0 0.0 0.00 0.00 0.00 88 1022.6
20260508020029 27 170 0.0 0.0 0.00 0.00 0.00 88 1022.4
20260508014526 27 170 0.0 0.0 0.00 0.00 0.00 88 1022.3
20260508013035 28 170 0.0 0.0 0.00 0.00 0.00 87 1022.2
20260508011521 28 170 0.0 0.0 0.00 0.00 0.00 86 1022.1
20260508010019 28 170 0.0 0.0 0.00 0.00 0.00 85 1021.9
20260508004531 29 170 0.0 0.0 0.00 0.00 0.00 86 1021.6
20260508003013 29 170 0.0 0.0 0.00 0.00 0.00 84 1021.5
20260508001516 30 170 0.0 0.0 0.00 0.00 0.00 84 1021.3
20260508000007 30 170 0.0 0.0 0.00 0.00 0.00 82 1021.2
20260507234505 31 170 0.0 0.0 0.00 0.00 0.00 82 1021.0
20260507233003 31 170 0.0 0.0 0.00 0.00 0.00 81 1020.9
20260507231559 32 170 0.0 0.0 0.00 0.00 0.00 79 1020.8
20260507230104 32 170 0.0 0.0 0.00 0.00 0.00 79 1020.6
20260507224553 32 170 0.0 0.0 0.00 0.00 0.00 77 1020.5
20260507223051 33 170 0.0 0.0 0.00 0.00 0.00 75 1020.3
20260507221549 34 170 0.0 0.0 0.00 0.00 0.00 73 1020.3
20260507220044 34 170 0.0 1.0 0.00 0.00 0.00 72 1020.2
20260507214604 34 170 0.0 0.0 0.00 0.00 0.00 69 1020.0
20260507213044 35 170 0.0 0.0 0.00 0.00 0.00 68 1019.9
20260507211540 36 170 0.0 0.0 0.00 0.00 0.00 64 1019.8
20260507210049 36 170 0.0 0.0 0.00 0.00 0.00 62 1019.6
20260507204535 37 170 0.0 0.0 0.00 0.00 0.00 61 1019.4
20260507203044 38 170 0.0 0.0 0.00 0.00 0.00 58 1019.3
20260507201535 39 170 0.0 1.0 0.00 0.00 0.00 56 1019.2
20260507200036 41 170 0.0 0.0 0.00 0.00 0.00 54 1019.0
20260507194550 43 170 2.0 4.0 0.00 0.00 0.00 49 1018.7
20260507193033 44 82 0.0 2.0 0.00 0.00 0.00 45 1018.6
20260507191526 45 82 2.0 3.0 0.00 0.00 0.00 42 1018.3
20260507190024 46 82 0.0 2.0 0.00 0.00 0.00 41 1018.0
20260507184521 47 126 0.0 4.0 0.00 0.00 0.00 38 1017.7
20260507183026 48 113 1.0 7.0 0.00 0.00 0.00 37 1017.7
20260507181519 49 151 2.0 9.0 0.00 0.00 0.00 38 1017.5
20260507180017 50 69 6.0 10.0 0.00 0.00 0.00 37 1017.3
20260507174517 51 96 3.0 9.0 0.00 0.00 0.00 33 1017.1
20260507173019 51 66 3.0 8.0 0.00 0.00 0.00 36 1016.8
20260507171510 51 103 1.0 8.0 0.00 0.00 0.00 37 1016.7
20260507170007 51 118 3.0 8.0 0.00 0.00 0.00 35 1016.4
20260507164505 52 72 4.0 10.0 0.00 0.00 0.00 35 1016.2
20260507163003 53 148 1.0 11.0 0.00 0.00 0.00 36 1016.0
20260507161600 52 111 3.0 11.0 0.00 0.00 0.00 36 1015.9
20260507160058 53 155 5.0 15.0 0.00 0.00 0.00 35 1015.8
20260507154605 53 198 10.0 16.0 0.00 0.00 0.00 35 1015.6
20260507153054 55 163 10.0 14.0 0.00 0.00 0.00 34 1015.4
20260507151553 54 140 3.0 14.0 0.00 0.00 0.00 33 1015.3
20260507150057 56 46 4.0 11.0 0.00 0.00 0.00 33 1015.1
20260507144551 57 72 4.0 11.0 0.00 0.00 0.00 30 1015.1
20260507143100 57 167 4.0 8.0 0.00 0.00 0.00 28 1015.0
20260507141551 56 92 3.0 8.0 0.00 0.00 0.00 27 1014.8
20260507140045 56 95 2.0 6.0 0.00 0.00 0.00 27 1014.8
20260507134545 56 96 3.0 8.0 0.00 0.00 0.00 26 1014.7
20260507133044 55 82 2.0 5.0 0.00 0.00 0.00 27 1014.7
20260507131601 56 85 4.0 8.0 0.00 0.00 0.00 27 1014.7
20260507130042 55 140 4.0 9.0 0.00 0.00 0.00 26 1014.7
20260507124543 56 184 4.0 10.0 0.00 0.00 0.00 25 1014.6
20260507123043 56 159 9.0 15.0 0.00 0.00 0.00 26 1014.6
20260507121539 56 115 6.0 13.0 0.00 0.00 0.00 26 1014.5
20260507120038 56 94 4.0 14.0 0.00 0.00 0.00 26 1014.6
20260507114539 54 100 5.0 11.0 0.00 0.00 0.00 26 1014.6
20260507113036 54 105 4.0 9.0 0.00 0.00 0.00 26 1014.6
20260507111533 55 124 3.0 13.0 0.00 0.00 0.00 28 1014.6
20260507110031 54 58 5.0 10.0 0.00 0.00 0.00 26 1014.5
20260507104530 54 165 3.0 7.0 0.00 0.00 0.00 28 1014.5
20260507103031 54 174 6.0 11.0 0.00 0.00 0.00 24 1014.4
20260507101527 53 178 8.0 10.0 0.00 0.00 0.00 27 1014.4
20260507100032 53 207 8.0 10.0 0.00 0.00 0.00 25 1014.5
20260507094526 52 226 6.0 9.0 0.00 0.00 0.00 27 1014.4
20260507093022 52 200 0.0 9.0 0.00 0.00 0.00 25 1014.2
20260507091525 51 204 1.0 9.0 0.00 0.00 0.00 26 1014.3
20260507090022 51 150 8.0 12.0 0.00 0.00 0.00 26 1014.3
20260507084518 50 168 4.0 9.0 0.00 0.00 0.00 26 1014.4
20260507083013 50 184 2.0 8.0 0.00 0.00 0.00 29 1014.4
20260507081509 49 180 6.0 12.0 0.00 0.00 0.00 31 1014.3
20260507080008 49 160 4.0 8.0 0.00 0.00 0.00 35 1014.3
20260507074507 48 71 3.0 10.0 0.00 0.00 0.00 36 1014.3
20260507073004 48 136 3.0 8.0 0.00 0.00 0.00 40 1014.3
20260507071501 47 118 2.0 9.0 0.00 0.00 0.00 42 1014.3
20260507070059 47 144 4.0 10.0 0.00 0.00 0.00 47 1014.2
20260507064555 46 131 4.0 9.0 0.00 0.00 0.00 52 1014.2
20260507063055 45 150 5.0 9.0 0.00 0.00 0.00 53 1014.2
20260507061555 44 70 4.0 8.0 0.00 0.00 0.00 57 1014.2
20260507060044 43 119 3.0 9.0 0.00 0.00 0.00 65 1014.1
20260507054540 43 153 2.0 7.0 0.00 0.00 0.00 69 1014.0
20260507053105 41 118 3.0 8.0 0.00 0.00 0.00 74 1014.0
20260507051541 40 119 4.0 7.0 0.00 0.00 0.00 79 1013.9
20260507050035 38 95 0.0 0.0 0.00 0.00 0.00 90 1013.8
20260507044529 34 95 0.0 2.0 0.00 0.00 0.00 90 1013.6
20260507043025 33 95 0.0 0.0 0.00 0.00 0.00 90 1013.6
20260507041524 31 95 0.0 0.0 0.00 0.00 0.00 91 1013.6
20260507040024 29 95 0.0 0.0 0.00 0.00 0.00 92 1013.7
20260507034532 28 95 0.0 1.0 0.00 0.00 0.00 91 1013.7